Weather History for EHEH - March, 2014

Change the Weather History Date:

Saturday, March 29, 2014

  Actual Average Record
Temperature  
Mean Temperature 55 °F -  
Max Temperature 68 °F 57 °F 69 °F (1998)
Min Temperature 42 °F 39 °F 26 °F (2013)
Degree Days  
Heating Degree Days 10    
Growing Degree Days 5 (Base 50)    
Moisture  
Dew Point 37 °F    
Average Humidity 50    
Maximum Humidity 81    
Minimum Humidity 20    
Precipitation  
Precipitation 0.00 in - - ()
Sea Level Pressure  
Sea Level Pressure 30.06 in    
Wind  
Wind Speed 6 mph ()    
Max Wind Speed 12 mph    
Max Gust Speed -    
Visibility 7.3 miles    
Events      
Averages and records for this station are not official NWS values.
T = Trace of Precipitation, MM = Missing Value Source: Averaged Metar Reports

Daily Weather History Graph

Daily Weather History Graph

Search for Another Location

Airport or City:

Trip Planner

Search our weather history database for the weather conditions in past years. The results will help you decide how hot, cold, wet, or windy it might be!

Date:

Astronomy

Mar. 29, 2014 Rise Set
Actual Time 6:21 AM CET 7:06 PM CET
Civil Twilight 5:47 AM CET 7:40 PM CET
Nautical Twilight 5:07 AM CET 8:20 PM CET
Astronomical Twilight 4:24 AM CET 9:03 PM CET
Moon 5:29 AM CET (3/29) 5:47 PM CET (3/29)
Length of Visible Light 13h 52m
Length of Day
12h 45m
Waning Crescent, 2% of the Moon is Illuminated
Mar 29
Waning Crescent
Mar 30
New
Apr 7
First Quarter
Apr 15
Full
Apr 22
Last Quarter

Hourly Weather History & Observations

Time (CET) Temp. Windchill Dew Point Humidity Pressure Visibility Wind Dir Wind Speed Gust Speed Precip Events Conditions
12:00 AM 50 °F - 39 °F 57% 30.07 in 7 mi East 8.9 mph - -  
12:25 AM 50.0 °F - 39.2 °F 66% 30.06 in 6.2 mi East 6.9 mph - N/A   Unknown
12:55 AM 50.0 °F - 39.2 °F 66% 30.06 in 6.2 mi East 6.9 mph - N/A   Unknown
1:00 AM 49 °F - 38 °F 57% 30.07 in 7 mi East 6.7 mph - -   Partly Cloudy
1:25 AM 48.2 °F - 37.4 °F 66% 30.06 in 6.2 mi East 6.9 mph - N/A   Unknown
1:55 AM 48.2 °F - 37.4 °F 66% 30.06 in 6.2 mi East 4.6 mph - N/A   Unknown
2:00 AM 48 °F - 37 °F 56% 30.07 in 9 mi East 4.5 mph - -  
2:25 AM 48.2 °F - 37.4 °F 66% 30.06 in 6.2 mi East 5.8 mph - N/A   Scattered Clouds
2:55 AM 48.2 °F - 37.4 °F 66% 30.06 in 6.2 mi East 5.8 mph - N/A   Unknown
3:00 AM 47 °F - 36 °F 57% 30.07 in 9 mi East 4.5 mph - -  
3:25 AM 46.4 °F 44.3 °F 37.4 °F 71% 30.06 in 6.2 mi ESE 4.6 mph - N/A   Unknown
3:55 AM 46.4 °F 43.5 °F 37.4 °F 71% 30.06 in 6.2 mi ESE 5.8 mph - N/A   Unknown
4:00 AM 46 °F - 36 °F 60% 30.08 in 8 mi ESE 4.5 mph - -  
4:25 AM 44.6 °F 42.2 °F 35.6 °F 71% 30.06 in 6.2 mi ESE 4.6 mph - N/A   Unknown
4:55 AM 44.6 °F 42.2 °F 35.6 °F 71% 30.06 in 6.2 mi ESE 4.6 mph - N/A   Unknown
5:00 AM 45 °F - 36 °F 63% 30.08 in 7 mi ESE 4.5 mph - -  
5:25 AM 44.6 °F 42.2 °F 35.6 °F 71% 30.06 in 6.2 mi ESE 4.6 mph - N/A   Unknown
5:55 AM 42.8 °F 41.1 °F 35.6 °F 76% 30.06 in 6.2 mi SE 3.5 mph - N/A   Unknown
6:00 AM 43 °F - 36 °F 69% 30.09 in 6 mi SE 4.5 mph - -  
6:25 AM 42.8 °F 40.1 °F 37.4 °F 81% 30.06 in 5.6 mi ESE 4.6 mph - N/A   Haze
6:55 AM 44.6 °F 42.2 °F 37.4 °F 76% 30.06 in 5.0 mi ESE 4.6 mph - N/A   Haze
7:00 AM 44 °F - 37 °F 68% 30.10 in 5 mi ESE 4.5 mph - -   Light Haze
7:18 AM 44.6 °F 42.2 °F 37.4 °F 76% 30.09 in 5.0 mi ESE 4.6 mph - N/A   Haze
7:25 AM 44.6 °F 41.4 °F 37.4 °F 76% 30.09 in 5.0 mi ESE 5.8 mph - N/A   Haze
7:55 AM 46.4 °F 42.9 °F 37.4 °F 71% 30.09 in 5.0 mi ESE 6.9 mph - N/A   Haze
8:00 AM 47 °F - 38 °F 61% 30.10 in 5 mi ESE 6.7 mph - -   Light Haze
8:25 AM 48.2 °F - 39.2 °F 71% 30.09 in 5.6 mi ESE 5.8 mph - N/A   Haze
8:55 AM 50.0 °F - 39.2 °F 66% 30.09 in 5.6 mi ESE 6.9 mph - N/A   Haze
9:00 AM 51 °F - 40 °F 56% 30.11 in 6 mi ESE 4.5 mph - -   Light Haze
9:09 AM 51.8 °F - 39.2 °F 62% 30.09 in 5.6 mi East 5.8 mph - N/A   Haze
9:25 AM 51.8 °F - 39.2 °F 62% 30.09 in 6.2 mi East 5.8 mph - N/A   Unknown
9:55 AM 55.4 °F - 41.0 °F 58% 30.09 in 6.2 mi ESE 4.6 mph - N/A   Partly Cloudy
10:00 AM 56 °F - 40 °F 44% 30.11 in 6 mi ESE 4.5 mph - -  
10:25 AM 57.2 °F - 41.0 °F 55% 30.09 in 6.2 mi ESE 5.8 mph - N/A   Scattered Clouds
10:55 AM 60.8 °F - 41.0 °F 48% 30.09 in 6.2 mi East 5.8 mph - N/A   Partly Cloudy
11:00 AM 60 °F - 40 °F 37% 30.11 in 7 mi East 6.7 mph - -   Scattered Clouds
11:25 AM 60.8 °F - 41.0 °F 48% 30.09 in 6.2 mi ESE 6.9 mph - N/A   Partly Cloudy
11:55 AM 62.6 °F - 42.8 °F 48% 30.09 in 6.2 mi East 8.1 mph - N/A   Mostly Cloudy
12:00 PM 64 °F - 42 °F 33% 30.10 in 8 mi East 8.9 mph - -   Scattered Clouds
12:25 PM 64.4 °F - 41.0 °F 42% 30.09 in 6.2 mi ESE 6.9 mph - N/A   Partly Cloudy
12:55 PM 64.4 °F - 41.0 °F 42% 30.06 in 6.2 mi East 9.2 mph - N/A   Partly Cloudy
1:00 PM 66 °F - 41 °F 29% 30.09 in 9 mi ESE 6.7 mph - -   Partly Cloudy
1:25 PM 66.2 °F - 41.0 °F 40% 30.06 in 6.2 mi ESE 8.1 mph - N/A   Unknown
1:55 PM 68.0 °F - 37.4 °F 33% 30.06 in 6.2 mi ESE 6.9 mph - N/A   Mostly Cloudy
2:00 PM 68 °F - 38 °F 22% 30.07 in 10 mi ESE 8.9 mph - -   Mostly Cloudy
2:25 PM 68.0 °F - 37.4 °F 33% 30.06 in 6.2 mi ESE 8.1 mph - N/A   Scattered Clouds
2:55 PM 66.2 °F - 35.6 °F 32% 30.04 in 6.2 mi ESE 9.2 mph - N/A   Scattered Clouds
3:00 PM 67 °F - 36 °F 20% 30.06 in 12 mi ESE 8.9 mph - -   Scattered Clouds
3:25 PM 68.0 °F - 35.6 °F 30% 30.04 in 6.2 mi ESE 8.1 mph - N/A   Mostly Cloudy
3:55 PM 68.0 °F - 33.8 °F 28% 30.04 in 6.2 mi ESE 10.4 mph - N/A   Overcast
4:00 PM 67 °F - 36 °F 20% 30.04 in 11 mi East 8.9 mph - -   Overcast
4:25 PM 66.2 °F - 33.8 °F 30% 30.04 in 6.2 mi East 8.1 mph - N/A   Partly Cloudy
4:55 PM 66.2 °F - 35.6 °F 32% 30.01 in 6.2 mi East 11.5 mph - N/A   Partly Cloudy
5:00 PM 66 °F - 35 °F 20% 30.03 in 15 mi East 11.2 mph - -   Scattered Clouds
5:25 PM 66.2 °F - 35.6 °F 32% 30.01 in 6.2 mi East 9.2 mph - N/A   Unknown
5:55 PM 64.4 °F - 33.8 °F 32% 30.01 in 6.2 mi East 8.1 mph - N/A   Unknown
6:00 PM 65 °F - 34 °F 20% 30.03 in 19 mi East 6.7 mph - -  
6:25 PM 64.4 °F - 33.8 °F 32% 30.01 in 6.2 mi East 8.1 mph - N/A   Unknown
6:55 PM 62.6 °F - 35.6 °F 37% 30.01 in 6.2 mi East 5.8 mph - N/A   Unknown
7:00 PM 63 °F - 35 °F 24% 30.03 in 22 mi East 6.7 mph - -   Partly Cloudy
7:25 PM 60.8 °F - 35.6 °F 39% 30.01 in 6.2 mi East 5.8 mph - N/A   Unknown
7:55 PM 60.8 °F - 35.6 °F 39% 30.04 in 6.2 mi ENE 6.9 mph - N/A   Partly Cloudy
8:00 PM 61 °F - 36 °F 28% 30.04 in 19 mi ENE 6.7 mph - -  
8:25 PM 59.0 °F - 37.4 °F 45% 30.04 in 6.2 mi East 5.8 mph - N/A   Unknown
8:55 PM 59.0 °F - 37.4 °F 45% 30.04 in 6.2 mi East 5.8 mph - N/A   Unknown
9:00 PM 59 °F - 37 °F 31% 30.04 in 19 mi East 6.7 mph - -   Scattered Clouds
9:25 PM 59.0 °F - 37.4 °F 45% 30.04 in 6.2 mi East 5.8 mph - N/A   Unknown
9:55 PM 57.2 °F - 37.4 °F 48% 30.04 in 6.2 mi East 4.6 mph - N/A   Unknown
10:00 PM 58 °F - 37 °F 33% 30.04 in 15 mi East 4.5 mph - -  
10:25 PM 57.2 °F - 37.4 °F 48% 30.04 in 6.2 mi East 4.6 mph - N/A   Unknown
10:55 PM 53.6 °F - 37.4 °F 54% 30.04 in 6.2 mi ESE 3.5 mph - N/A   Unknown
11:00 PM 54 °F - 37 °F 40% 30.04 in 14 mi ESE 4.5 mph - -  
11:25 PM 55.4 °F - 37.4 °F 51% 30.04 in 6.2 mi ESE 3.5 mph - N/A   Unknown
11:55 PM 50.0 °F - 37.4 °F 62% 30.04 in 6.2 mi ENE 2.3 mph - N/A   Unknown